Regional Weather Roundup
Issued by NWS

Home | Current Version | Previous Version | Graphics & Text | Print | Product List | Glossary On
Versions: 1 2 3 4 5 6 7 8 9 10 11 12 13 14 15 16 17 18 19 20 21 22 23 24 25 26 27 28 29 30 31 32 33 34 35 36 37 38 39 40 41 42 43 44 45 46 47 48 49 50
000
ASUS45 KBOU 302207
RWRCO

WEATHER ROUNDUP FOR COLORADO
NATIONAL WEATHER SERVICE DENVER/BOULDER CO
400 PM MDT SUN AUG 30 2015

NOTE: "FAIR" INDICATES FEW OR NO CLOUDS BELOW 12000 FEET WITH NO
SIGNIFICANT WEATHER AND/OR OBSTRUCTIONS TO VISIBILITY.

COZ001>005-013-030-031-302300-
...NORTHWEST COLORADO...

CITY           SKY/WX    TMP DP  RH WIND       PRES   REMARKS
CRAIG          MOSUNNY   84  41  21 SW14G22   30.10F
HAYDEN         NOT AVBL
MEEKER         PTSUNNY   76  53  44 NW12      30.12F
MOUNT WERNER   NOT AVBL
STEAMBOAT SPGS MOSUNNY   79  45  30 E5        30.17F
WALDEN         PTSUNNY   70  39  32 SW21G31   30.28S
$$

COZ006>008-011-302300-
...WEST CENTRAL VALLEYS...

CITY           SKY/WX    TMP DP  RH WIND       PRES   REMARKS
GRAND JUNCTION MOSUNNY   89  44  20 S5        29.99F
MONTROSE       PTSUNNY   74  55  51 E14G24    30.13F
EAGLE          MOSUNNY   79  41  25 CALM      30.17F
RIFLE          LGT RAIN  85  49  28 SE8       30.05F
DELTA          RAIN      91  49  23 SE18G29   30.06S
NUCLA          PTSUNNY   90  36  14 W6        30.13F
$$

COZ017>023-064>068-302300-
...SOUTHWEST COLORADO...

CITY           SKY/WX    TMP DP  RH WIND       PRES   REMARKS
DURANGO        PTSUNNY   83  41  22 SE9       30.19F
CORTEZ         SUNNY     90  42  18 SW15      30.11F
PAGOSA SPRINGS MOSUNNY   81  36  20 NW7       30.28F
TELLURIDE      CLOUDY    63  53  69 NE5       30.41F
WOLF CREEK PAS MOSUNNY   59  39  47 SW10G21   30.65F
$$

COZ009-010-012-014-032>034-037-058>063-302300-
...CENTRAL COLORADO...

CITY           SKY/WX    TMP DP  RH WIND       PRES   REMARKS
ASPEN          MOSUNNY   79  41  25 N9        30.25S
BUENA VISTA    MOSUNNY   83  27  13 SE8       30.23F
COPPER MTN     CLOUDY    64  30  27 W16       30.60F
BERTHOUD PASS  PTSUNNY   55  43  62 MISG      30.66S
COTTONWOOD PAS MOSUNNY   77  21  12 SW12G17   30.41F
GUNNISON       PTSUNNY   77  39  25 SW9G16    30.28F
KREMMLING      MOSUNNY   79  32  18 W13G18    30.22R
LEADVILLE      MOSUNNY   69  30  23 W8        30.40F
MONARCH PASS   MOSUNNY   63  34  34 W16G30    30.70F
SALIDA         MOSUNNY   86  33  15 SE9G17    30.27F
SUNLIGHT       MOSUNNY   66  45  45 CALM      30.52F
WILKERSON PASS PTSUNNY   64  28  25 NW3       30.57F
$$

COZ069>075-302300-
...SAN LUIS VALLEY/SANGRE DE CRISTO MOUNTAINS...

CITY           SKY/WX    TMP DP  RH WIND       PRES   REMARKS
ALAMOSA        SUNNY     81  32  17 VRB3      30.25F
LA VETA PASS   MOSUNNY   75  32  20 SW6       30.47F
SAGUACHE       PTSUNNY   79  41  25 SW6       30.28F
$$

COZ035-036-038>040-302300-
...NORTHERN COLORADO FRONT RANGE...

CITY           SKY/WX    TMP DP  RH WIND       PRES   REMARKS
DENVER INTL AP MOSUNNY   95  28   9 S6        30.01F
DMNS CITY PARK   N/A     93  33  11 E6G15     30.00S
AURORA         MOSUNNY   92  33  12 SW8       30.04F
FRONT RANGE AP MOSUNNY   93  28  10 S7        30.03F
ERIE MUNI ARPT MOSUNNY   95  29   9 SE14      29.97F
BOULDER MUN AP MOSUNNY   91  36  14 S7G16     29.97F
CENTENNIAL     MOSUNNY   90  33  13 VRB5      30.06F
BROOMFIELD     MOSUNNY   93  36  13 SE12      30.03F
FORT COLLINS   MOSUNNY   97  39  13 S9G17     29.93F
LONGMONT       MOSUNNY   98  35  11 SE12G17   29.97F
$$

COZ041-046-047-076>085-087-088-302300-
...PIKES PEAK/PALMER DIVIDE AND SOUTHERN FOOTHILLS...

CITY           SKY/WX    TMP DP  RH WIND       PRES   REMARKS
COLO. SPRINGS  MOSUNNY   88  35  15 SE12G23   30.11F
A. F. ACADEMY  MOSUNNY   88  37  16 SE13G23   30.11
ELLICOTT       NOT AVBL
FALCON         SUNNY     86  33  15 MISG      30.18F
FORT CARSON    SUNNY     90  42  18 SE13      30.06F
LIMON          SUNNY     89  44  20 S9G22     30.06F
MONUMENT HILL  MOSUNNY   86  30  13 S3        30.18F
TRINIDAD       MOSUNNY   89  35  14 VRB5      30.08F
$$

COZ042>045-048>051-090-091-302300-
...NORTHEAST COLORADO...

CITY           SKY/WX    TMP DP  RH WIND       PRES   REMARKS
GREELEY ARPT   SUNNY     97  36  11 E7        29.95F
AKRON          SUNNY     95  42  16 S16       29.98F
BURLINGTON     SUNNY     89  46  22 S17G28    30.01F
WRAY           CLOUDY    97  40  13 SE20G25   29.94F
STERLING       SUNNY     99  37  12 S12       29.89F
HOLYOKE        SUNNY     95  46  18 S15G23    29.93F
FORT MORGAN    SUNNY     97  32  10 SE9       29.96F
$$

COZ086-089-092>099-302300-
...SOUTHEAST COLORADO...

CITY           SKY/WX    TMP DP  RH WIND       PRES   REMARKS
PUEBLO         SUNNY     97  39  13 SE14      29.96F
LA JUNTA       SUNNY     97  43  15 SE13      29.96F
LAMAR          NOT AVBL
SPRINGFIELD    NOT AVBL
$$



USA.gov is the U.S. government's official web portal to all federal, state and local government web resources and services.